{"data":{"norad_id":38354,"epoch":"2026-09-20T04:24:59.837760Z","epoch_age_seconds":41817,"freshness":"FRESH","line1":"1 38354U 12029A   26263.18402590 -.00000190  00000+0 -36415-3 0  9998","line2":"2 38354 100.7254 109.6684 0025888  76.5648 283.8348 13.18386428687961","mean_motion":13.18386428,"eccentricity":0.0025888,"inclination_deg":100.7254,"raan_deg":109.6684,"arg_perigee_deg":76.5648,"mean_anomaly_deg":283.8348,"bstar":-0.00036415,"rev_number":68796,"period_min":109.22442535945,"perigee_km":1171.2948016577,"apogee_km":1210.4841932509,"semimajor_km":7569.0264974543,"source":"CELESTRAK","updated_at":"2026-09-20T09:00:13.858802Z"}}